Other Surface Observations
Issued by NWS Charleston, SC

Home | Current Version | Previous Version | Text Only | Print | Product List | Glossary On
Versions: 1 2 3 4 5 6 7 8 9 10 11 12 13 14 15 16 17 18 19 20 21 22 23 24 25 26 27 28 29 30 31 32 33 34 35 36 37 38 39 40 41 42 43 44 45 46 47 48 49 50
000
SXUS52 KCHS 291128
OSOCHS

MARINE OBSERVATIONS
NATIONAL WEATHER SERVICE CHARLESTON SC
700 AM EDT FRI APR 29 2016

...DOWNTOWN CHARLESTON AND HARBOR...

CITY           SKY/WX    TMP DP  RH WIND       PRES   REMARKS
WATERFRONT PRK   N/A     71  69  93 W6        29.93R

...LAKE MOULTRIE...

CITY           SKY/WX    TMP DP  RH WIND       PRES   REMARKS
PINOPOLIS        N/A     70  68  94 W6        29.88R

...LAKE AND SUPPLEMENTAL COASTAL OBSERVATIONS...

STATION/POSITION TIME  TEMP    WIND        PRES    WAVE   SWELL
                       AIR SEA DIR/SP/G            HT/PER HT/PER/DIR
                 (UTC) (F)     (DEG/KT/KT) (MB)    (FT/S) (FT/S/D)
FORT PULASKI     1100   71 72  270/  5/  6 1015.4R
SAPELO ISLAND    1000   70     270/  4     1015.0S
WINYAH BAY       NOT AVBL
LAKE MURRAY      1100   68     280/  2/  7 1014.6R
ACE BASIN NERRS  1000   70     250/  2     1014.0


...C-MAN AND BUOY OBSERVATIONS...

STATION/POSITION TIME  TEMP    WIND        PRES    WAVE   SWELL
                       AIR SEA DIR/SP/G            HT/PER HT/PER/DIR
                 (UTC) (F)     (DEG/KT/KT) (MB)    (FT/S) (FT/S/D)
BUOY 41004       1050   72 72  250/ 12/ 14 1013.3R   3/ 5   2/11
BUOY 41008       NOT AVBL
FOLLY BEACH CMAN 1100   70     270/  4/  8 1014.3R
CAPERS NS BUOY   1108   71 69  280/ 10/ 12 1013.9R
FRIPP NS BUOY    1108   73 71  270/ 10/ 12 1014.1R
5E ST. MARYS GA  1021      71                N/A     1/11


STATION/POSITION TIME  TEMP    WIND        PRES    WAVE   SWELL
                       AIR SEA DIR/SP/G            HT/PER HT/PER/DIR
                 (UTC) (F)     (DEG/KT/KT) (MB)    (FT/S) (FT/S/D)
FRYING PAN BUOY  1100   71 69  250/ 14/ 16 1012.8R
BUOY 41025       1050   66 71   30/ 12/ 16 1012.2R   3/ 3   2/110/ 9
CAPE LOOKOUT NC  1100   67     320/  7/  9 1012.4R
BUOY 41002       1050   71 71  200/ 12/ 14 1014.9R   2/ 9   2/ 90/ 9
BUOY 41010       1020   75 76  220/ 10/ 10 1015.6R
ST AUGUSTINE FL  1100   70 69  280/  6/  8 1016.7R

$$




USA.gov is the U.S. government's official web portal to all federal, state and local government web resources and services.